Вернуться в каталог

STARLINK-31858

АктивенСвязьVLEO
NORAD 59658·PAYLOAD·🇺🇸 United States

Запущен May 6, 2024 с Cape Canaveral Space Force Station

Loading…

Ближайшие Пролёты (ближайшие 24 часа)

TLE

СвежийSource: CelesTrak SupGP

Эпоха: Sep 14, 2026, 22:39 UTC

1 59658C 24084E   26257.94423611  .00048115  00000+0  17425-2 0  2579
2 59658  43.0035  52.7177 0001876 273.0856 326.6959 15.27557251    13

Отслеживайте STARLINK-31858 в реальном времени с AllMySat

Download on the App Store